CW7804 Weather Reports


Display with metric or nautical units.
time (UTC)temp
F
wind
direction
speed
MPH
gust
MPH
rain 1hr
in
rain 24hr
in
rain mn
in
humidity
%
barometer
mb
20180225230656 64 172 6.0 9.0 0.00 0.13 0.13 85 1017.9
20180225225623 65 191 7.0 9.0 0.00 0.13 0.13 85 1015.9
20180225224550 65 183 5.0 8.0 0.00 0.13 0.13 86 1015.9
20180225223549 65 171 6.0 11.0 0.00 0.13 0.13 87 1016.9
20180225222548 65 196 7.0 9.0 0.00 0.13 0.13 88 1016.9
20180225221515 65 199 5.0 6.0 0.00 0.13 0.13 88 1016.9
20180225220514 65 213 4.0 5.0 0.00 0.13 0.13 89 1016.9
20180225215513 65 195 4.0 6.0 0.00 0.13 0.13 89 1016.9
20180225214408 66 179 4.0 6.0 0.00 0.13 0.13 90 1015.9
20180225213230 66 216 5.0 5.0 0.00 0.13 0.13 89 1015.9
20180225212229 66 200 5.0 6.0 0.00 0.13 0.13 88 1016.9
20180225211228 67 218 4.0 7.0 0.00 0.13 0.13 87 1015.9
20180225210155 67 249 5.0 8.0 0.00 0.13 0.13 86 1015.9
20180225205155 67 222 3.0 5.0 0.00 0.13 0.13 87 1016.9
20180225204154 67 203 4.0 6.0 0.00 0.13 0.13 87 1015.9
20180225203153 67 206 3.0 6.0 0.00 0.13 0.13 89 1015.9
20180225202153 66 182 4.0 6.0 0.00 0.13 0.13 90 1016.9
20180225201152 66 184 3.0 6.0 0.00 0.13 0.13 90 1016.9
20180225200151 66 193 3.0 6.0 0.00 0.13 0.13 90 1016.9
20180225195150 67 192 5.0 7.0 0.00 0.13 0.13 90 1016.9
20180225194117 67 180 3.0 6.0 0.00 0.13 0.13 90 1017.9
20180225193011 67 310 5.0 8.0 0.00 0.13 0.13 90 1017.9
20180225191906 67 214 7.0 9.0 0.00 0.13 0.13 89 1016.9
20180225190905 67 248 6.0 8.0 0.00 0.13 0.13 89 1016.9
20180225185759 67 236 6.0 9.0 0.00 0.13 0.13 88 1016.9
20180225184801 67 202 5.0 5.0 0.00 0.13 0.13 86 1016.9
20180225183758 67 180 0.0 5.0 0.00 0.13 0.13 90 1015.9
20180225182725 67 180 2.0 5.0 0.00 0.13 0.13 92 1016.9
20180225181619 67 220 3.0 8.0 0.00 0.13 0.13 93 1016.9
20180225180618 66 238 6.0 9.0 0.00 0.13 0.13 94 1016.9
20180225175545 64 187 6.0 7.0 0.00 0.13 0.13 97 1015.9
20180225174544 64 207 5.0 10.0 0.00 0.13 0.13 97 1015.9
20180225173543 64 213 4.0 13.0 0.00 0.13 0.13 98 1015.9
20180225172542 64 192 6.0 9.0 0.00 0.13 0.13 98 1017.9
20180225171436 64 197 6.0 14.0 0.00 0.13 0.13 98 1017.9
20180225170435 64 174 7.0 8.0 0.00 0.13 0.13 98 1019.0
20180225165434 64 213 3.0 5.0 0.00 0.13 0.13 98 1017.9
20180225164401 63 180 3.0 4.0 0.00 0.13 0.13 98 1017.9
20180225163400 63 251 3.0 4.0 0.00 0.13 0.13 98 1019.0
20180225162359 63 225 4.0 4.0 0.00 0.13 0.13 98 1019.0
20180225161358 63 45 0.0 0.0 0.00 0.13 0.13 98 1019.0
20180225160325 63 1 3.0 8.0 0.00 0.13 0.13 98 1019.0
20180225155148 63 35 7.0 9.0 0.13 0.00 0.13 98 1019.0
20180225154042 63 41 4.0 5.0 0.13 0.00 0.13 97 1020.0
20180225153041 63 17 4.0 8.0 0.08 0.00 0.08 97 1020.0
20180225152040 63 305 3.0 6.0 0.04 0.00 0.04 95 1019.0
20180225150935 64 292 2.0 8.0 0.04 0.00 0.04 92 1019.0
20180225145829 66 287 7.0 9.0 0.00 0.00 0.00 86 1019.0
20180225144756 67 283 4.0 8.0 0.00 0.00 0.00 84 1017.9
20180225143651 67 328 3.0 6.0 0.00 0.00 0.00 84 1017.9
20180225142650 67 297 4.0 9.0 0.00 0.00 0.00 85 1017.9
20180225141649 66 286 6.0 12.0 0.00 0.00 0.00 84 1017.9
20180225140648 67 308 5.0 12.0 0.00 0.00 0.00 83 1015.9
20180225135647 67 260 6.0 8.0 0.00 0.00 0.00 83 1015.9
20180225134646 67 218 6.0 17.0 0.00 0.00 0.00 82 1016.9
20180225133541 67 232 6.0 11.0 0.00 0.00 0.00 84 1016.9
20180225132540 66 200 5.0 16.0 0.00 0.00 0.00 84 1015.9
20180225131539 67 208 8.0 13.0 0.00 0.00 0.00 84 1015.9
20180225130401 65 210 7.0 13.0 0.00 0.00 0.00 89 1015.9
20180225125255 65 201 8.0 13.0 0.00 0.00 0.00 90 1015.9
20180225124255 63 209 8.0 13.0 0.00 0.00 0.00 93 1015.9
20180225123222 63 197 7.0 12.0 0.00 0.00 0.00 94 1015.9
20180225122148 62 203 7.0 10.0 0.00 0.00 0.00 95 1015.9
20180225121043 62 201 6.0 10.0 0.00 0.00 0.00 95 1015.9
20180225120042 62 196 6.0 12.0 0.00 0.00 0.00 94 1015.9
20180225114904 62 195 6.0 12.0 0.00 0.00 0.00 94 1015.9
20180225113904 62 202 6.0 9.0 0.00 0.00 0.00 94 1015.9
20180225112903 62 213 5.0 9.0 0.00 0.00 0.00 94 1015.9
20180225111902 62 200 7.0 12.0 0.00 0.00 0.00 94 1015.9
20180225110829 62 182 6.0 12.0 0.00 0.00 0.00 93 1014.9
20180225105651 63 202 6.0 9.0 0.00 0.00 0.00 92 1015.9
20180225104545 63 195 6.0 11.0 0.00 0.00 0.00 92 1015.9
20180225103545 63 213 7.0 13.0 0.00 0.00 0.00 92 1015.9
20180225102512 63 195 6.0 12.0 0.00 0.00 0.00 92 1015.9
20180225101511 63 203 6.0 9.0 0.00 0.00 0.00 91 1015.9
20180225100405 64 210 5.0 9.0 0.00 0.00 0.00 91 1014.9
20180225095300 64 192 7.0 12.0 0.00 0.00 0.00 91 1014.9
20180225094227 64 191 7.0 13.0 0.00 0.00 0.00 90 1014.9
20180225093154 64 193 6.0 11.0 0.00 0.00 0.00 90 1015.9
20180225092120 64 200 6.0 11.0 0.00 0.00 0.00 90 1015.9
20180225091119 64 199 6.0 11.0 0.00 0.00 0.00 89 1015.9
20180225085942 65 198 4.0 9.0 0.00 0.00 0.00 87 1015.9
20180225084908 65 195 6.0 12.0 0.00 0.00 0.00 87 1014.9
20180225083835 65 176 7.0 11.0 0.00 0.00 0.00 87 1015.9
20180225082834 66 185 7.0 12.0 0.00 0.00 0.00 87 1015.9
20180225081801 66 203 5.0 12.0 0.00 0.00 0.00 87 1015.9
20180225080728 65 202 7.0 12.0 0.00 0.00 0.00 89 1015.9
20180225075727 65 189 6.0 11.0 0.00 0.00 0.00 90 1015.9
20180225074621 64 189 7.0 9.0 0.00 0.00 0.00 91 1015.9
20180225073306 64 202 7.0 12.0 0.00 0.00 0.00 92 1015.9
20180225072305 64 194 7.0 8.0 0.00 0.00 0.00 92 1015.9
20180225071304 64 185 6.0 9.0 0.00 0.00 0.00 92 1016.9
20180225070054 64 177 6.0 9.0 0.00 0.00 0.00 91 1016.9
20180225064949 64 184 6.0 8.0 0.00 0.00 0.00 90 1016.9
20180225063949 64 186 5.0 8.0 0.00 0.00 0.00 89 1016.9
20180225062915 64 166 5.0 8.0 0.00 0.00 0.00 88 1016.9
20180225061915 64 176 5.0 8.0 0.00 0.00 0.00 87 1016.9
20180225060843 64 187 6.0 9.0 0.00 0.00 0.00 86 1016.9
20180225055811 64 200 5.0 9.0 0.00 0.00 0.00 85 1016.9
20180225054736 65 199 6.0 8.0 0.00 0.00 0.00 84 1017.9
20180225053702 65 197 6.0 8.0 0.00 0.00 0.00 83 1016.9
20180225052701 65 184 6.0 9.0 0.00 0.00 0.00 83 1017.9
20180225051628 66 190 7.0 9.0 0.00 0.00 0.00 82 1017.9
20180225050627 66 185 6.0 9.0 0.00 0.00 0.00 82 1016.9
20180225045627 66 174 6.0 9.0 0.00 0.00 0.00 82 1016.9
20180225044626 66 187 6.0 7.0 0.00 0.00 0.00 81 1016.9
20180225043625 66 181 5.0 8.0 0.00 0.00 0.00 81 1015.9
20180225042625 66 180 5.0 7.0 0.00 0.00 0.00 80 1015.9
20180225041551 66 196 4.0 6.0 0.00 0.00 0.00 80 1015.9
20180225040550 66 200 4.0 6.0 0.00 0.00 0.00 79 1015.9
20180225035517 67 178 4.0 7.0 0.00 0.00 0.00 78 1016.9
20180225034516 67 181 5.0 8.0 0.00 0.00 0.00 77 1016.9
20180225033515 68 196 5.0 7.0 0.00 0.00 0.00 76 1016.9
20180225032442 68 190 6.0 8.0 0.00 0.00 0.00 75 1016.9
20180225031441 68 199 6.0 11.0 0.00 0.00 0.00 74 1016.9
20180225030440 68 196 5.0 8.0 0.00 0.00 0.00 73 1016.9
20180225025407 68 196 6.0 12.0 0.00 0.00 0.00 73 1015.9
20180225024229 68 199 6.0 8.0 0.00 0.00 0.00 73 1015.9
20180225023228 69 205 4.0 10.0 0.00 0.00 0.00 73 1016.9
20180225022123 69 201 5.0 6.0 0.00 0.00 0.00 73 1016.9
20180225021122 69 193 5.0 9.0 0.00 0.00 0.00 72 1017.9
20180225020049 69 182 6.0 9.0 0.00 0.00 0.00 72 1017.9
20180225015048 69 188 4.0 11.0 0.00 0.00 0.00 72 1016.9
20180225014047 69 197 5.0 11.0 0.00 0.00 0.00 72 1016.9
20180225012942 69 192 6.0 7.0 0.00 0.00 0.00 73 1016.9
20180225011941 69 190 4.0 8.0 0.00 0.00 0.00 72 1016.9
20180225010940 69 186 4.0 8.0 0.00 0.00 0.00 72 1016.9
20180225005939 70 184 5.0 6.0 0.00 0.00 0.00 71 1016.9
20180225004907 70 184 4.0 5.0 0.00 0.00 0.00 70 1016.9
20180225003905 70 177 4.0 6.0 0.00 0.00 0.00 70 1016.9
20180225002655 70 185 4.0 7.0 0.00 0.00 0.00 69 1016.9
20180225001622 70 179 3.0 4.0 0.00 0.00 0.00 67 1016.9
20180225000621 71 163 3.0 5.0 0.00 0.00 0.00 66 1016.9
20180224235621 71 163 2.0 5.0 0.00 0.00 0.00 65 1015.9
20180224234515 72 201 3.0 8.0 0.00 0.00 0.00 63 1015.9
20180224233514 73 201 5.0 8.0 0.00 0.00 0.00 63 1015.9
20180224232514 73 220 4.0 6.0 0.00 0.00 0.00 62 1016.9
20180224231513 73 189 4.0 6.0 0.00 0.00 0.00 61 1016.9